Weather History for Durant, OK

Change the Weather History Date:

Wednesday, February 20, 2013

  Actual Average (KADM) Record (KADM)
Temperature  
Mean Temperature 40 °F -  
Max Temperature 46 °F 55 °F 80 °F (2005)
Min Temperature 35 °F 37 °F 30 °F (2006)
Degree Days  
Heating Degree Days 24    
Moisture  
Dew Point 34 °F    
Average Humidity 85    
Maximum Humidity 100    
Minimum Humidity 50    
Precipitation  
Precipitation 0.49 in - - ()
Sea Level Pressure  
Sea Level Pressure 30.10 in    
Wind  
Wind Speed 12 mph (East)    
Max Wind Speed 24 mph    
Max Gust Speed 29 mph    
Visibility 10 miles    
Events Rain    
Averages and records for this station are not official NWS values.
T = Trace of Precipitation, MM = Missing Value Source: NWS Daily Summary

Daily Weather History Graph

Daily Weather History Graph

Search for Another Location

Airport:

Trip Planner

Search our weather history database for the weather conditions in past years. The results will help you decide how hot, cold, wet, or windy it might be!

Date:

Astronomy

Feb. 20, 2013 Rise Set
Actual Time 7:04 AM CST 6:14 PM CST
Civil Twilight 6:39 AM CST 6:39 PM CST
Nautical Twilight 6:10 AM CST 7:08 PM CST
Astronomical Twilight 5:41 AM CST 7:37 PM CST
Moon 1:44 PM CST (2/20) 3:17 AM CST (2/20)
Length of Visible Light 12h 00m
Length of Day
11h 09m
Waxing Gibbous, 76% of the Moon is Illuminated
Feb 20
Waxing Gibbous
Feb 25
Full
Mar 4
Last Quarter
Mar 11
New
Mar 19
First Quarter

Hourly Weather History & Observations

Time (CST) Temp. Windchill Dew Point Humidity Pressure Visibility Wind Dir Wind Speed Gust Speed Precip Events Conditions
12:15 AM 46.4 °F 42.4 °F 28.4 °F 50% 30.21 in 10.0 mi ENE 8.1 mph - N/A   Overcast
12:35 AM 46.4 °F 41.9 °F 28.4 °F 50% 30.21 in 10.0 mi East 9.2 mph - N/A   Overcast
12:55 AM 46.4 °F 41.9 °F 28.4 °F 50% 30.21 in 10.0 mi ENE 9.2 mph - N/A   Overcast
1:15 AM 46.4 °F 41.5 °F 28.4 °F 50% 30.21 in 10.0 mi East 10.4 mph - N/A   Overcast
1:35 AM 46.4 °F 41.5 °F 28.4 °F 50% 30.22 in 10.0 mi ESE 10.4 mph - N/A   Overcast
1:55 AM 46.4 °F 42.4 °F 28.4 °F 50% 30.22 in 10.0 mi ESE 8.1 mph - N/A   Overcast
2:15 AM 46.4 °F 41.9 °F 28.4 °F 50% 30.21 in 10.0 mi ESE 9.2 mph - N/A Rain Light Rain
2:55 AM 44.6 °F 39.2 °F 30.2 °F 57% 30.19 in 10.0 mi East 10.4 mph - N/A   Light Drizzle
3:15 AM 44.6 °F 37.8 °F 32.0 °F 61% 30.19 in 10.0 mi East 15.0 mph 26.5 mph N/A   Drizzle
3:35 AM 42.8 °F 39.3 °F 33.8 °F 70% 30.21 in 10.0 mi ESE 5.8 mph - N/A   Drizzle
3:55 AM 41.0 °F 36.4 °F 33.8 °F 76% 30.20 in 10.0 mi SE 6.9 mph - 0.02 in Rain Light Rain
4:15 AM 41.0 °F 38.0 °F 35.6 °F 81% 30.23 in 10.0 mi South 4.6 mph - 0.02 in Rain Rain
4:35 AM 41.0 °F 38.0 °F 35.6 °F 81% 30.22 in 7.0 mi ESE 4.6 mph - 0.07 in Rain Rain
4:55 AM 41.0 °F 35.2 °F 35.6 °F 81% 30.22 in 10.0 mi SE 9.2 mph - 0.10 in Rain Rain
5:15 AM 41.0 °F 33.5 °F 35.6 °F 81% 30.19 in 5.0 mi East 13.8 mph - 0.09 in Rain Rain
5:35 AM 39.2 °F 31.6 °F 37.4 °F 93% 30.16 in 7.0 mi East 12.7 mph - 0.16 in Rain Rain
5:55 AM 39.2 °F 32.5 °F 37.4 °F 93% 30.17 in 10.0 mi East 10.4 mph - 0.19 in Rain Light Rain
6:15 AM 39.2 °F 33.6 °F 37.4 °F 93% 30.19 in 7.0 mi ESE 8.1 mph - 0.06 in Rain Rain
6:35 AM 37.4 °F 30.3 °F 37.4 °F 100% 30.17 in 7.0 mi ENE 10.4 mph - 0.12 in Rain Light Rain
6:55 AM 37.4 °F 29.3 °F 37.4 °F 100% 30.19 in 10.0 mi East 12.7 mph - 0.12 in   Light Drizzle
7:15 AM 37.4 °F 29.8 °F 37.4 °F 100% 30.18 in 10.0 mi ENE 11.5 mph - N/A   Overcast
7:35 AM 37.4 °F 30.8 °F 37.4 °F 100% 30.22 in 10.0 mi ENE 9.2 mph - N/A Rain Rain
7:55 AM 37.4 °F 30.8 °F 37.4 °F 100% 30.22 in 10.0 mi NE 9.2 mph - 0.01 in Rain Rain
8:15 AM 37.4 °F 30.3 °F 37.4 °F 100% 30.24 in 10.0 mi NNE 10.4 mph - 0.01 in   Drizzle
8:35 AM 37.4 °F 30.3 °F 35.6 °F 93% 30.21 in 10.0 mi ENE 10.4 mph - 0.01 in Rain Light Rain
8:55 AM 37.4 °F 29.3 °F 35.6 °F 93% 30.21 in 10.0 mi ENE 12.7 mph - 0.01 in Rain Light Rain
9:15 AM 37.4 °F 29.8 °F 35.6 °F 93% 30.20 in 10.0 mi East 11.5 mph - 0.01 in Rain Light Rain
9:35 AM 37.4 °F 30.8 °F 37.4 °F 100% 30.23 in 10.0 mi ENE 9.2 mph - 0.02 in Rain Light Rain
9:55 AM 37.4 °F 30.8 °F 37.4 °F 100% 30.25 in 10.0 mi ENE 9.2 mph - 0.03 in Rain Light Rain
10:15 AM 37.4 °F 28.9 °F 37.4 °F 100% 30.20 in 10.0 mi East 13.8 mph - N/A Rain Rain
10:35 AM 39.2 °F 31.2 °F 37.4 °F 93% 30.20 in 10.0 mi East 13.8 mph - N/A   Overcast
10:55 AM 41.0 °F 31.9 °F 37.4 °F 87% 30.18 in 10.0 mi East 19.6 mph 24.2 mph N/A   Overcast
11:15 AM 41.0 °F 30.9 °F 39.2 °F 93% 30.15 in 10.0 mi East 24.2 mph 28.8 mph N/A   Overcast
11:35 AM 41.0 °F 31.9 °F 37.4 °F 87% 30.13 in 10.0 mi East 19.6 mph 24.2 mph N/A   Overcast
11:55 AM 41.0 °F 32.2 °F 37.4 °F 87% 30.13 in 10.0 mi East 18.4 mph 25.3 mph N/A   Overcast
12:15 PM 42.8 °F 34.0 °F 37.4 °F 81% 30.12 in 10.0 mi ESE 20.7 mph 26.5 mph N/A   Overcast
12:35 PM 42.8 °F 33.8 °F 37.4 °F 81% 30.10 in 10.0 mi East 21.9 mph 26.5 mph N/A   Overcast
12:55 PM 41.0 °F 32.8 °F 35.6 °F 81% 30.11 in 10.0 mi ESE 16.1 mph - N/A   Light Drizzle
1:15 PM 41.0 °F 31.9 °F 35.6 °F 81% 30.09 in 10.0 mi ESE 19.6 mph - N/A Rain Rain
1:35 PM 39.2 °F 29.8 °F 35.6 °F 87% 30.09 in 10.0 mi ESE 18.4 mph - N/A   Light Drizzle
1:55 PM 39.2 °F 30.5 °F 35.6 °F 87% 30.09 in 10.0 mi East 16.1 mph 21.9 mph N/A   Overcast
2:15 PM 39.2 °F 30.8 °F 35.6 °F 87% 30.08 in 10.0 mi East 15.0 mph 20.7 mph N/A   Overcast
2:35 PM 39.2 °F 30.5 °F 35.6 °F 87% 30.07 in 10.0 mi ENE 16.1 mph - N/A   Overcast
2:55 PM 39.2 °F 30.5 °F 35.6 °F 87% 30.05 in 10.0 mi East 16.1 mph - 0.01 in Rain Light Rain
3:15 PM 37.4 °F 28.9 °F 35.6 °F 93% 30.05 in 10.0 mi East 13.8 mph - N/A   Overcast
3:35 PM 37.4 °F 26.4 °F 35.6 °F 93% 30.03 in 10.0 mi East 23.0 mph 26.5 mph N/A   Overcast
3:55 PM 37.4 °F 26.6 °F 35.6 °F 93% 30.03 in 10.0 mi ESE 21.9 mph 27.6 mph N/A   Overcast
4:15 PM 37.4 °F 28.5 °F 35.6 °F 93% 30.03 in 10.0 mi ESE 15.0 mph - N/A   Overcast
4:35 PM 37.4 °F 28.2 °F 35.6 °F 93% 30.02 in 10.0 mi East 16.1 mph 25.3 mph N/A   Overcast
4:55 PM 37.4 °F 27.5 °F 33.8 °F 87% 30.02 in 10.0 mi East 18.4 mph 24.2 mph N/A   Overcast
5:15 PM 37.4 °F 27.2 °F 33.8 °F 87% 30.00 in 10.0 mi East 19.6 mph 28.8 mph N/A   Overcast
5:35 PM 35.6 °F 24.2 °F 33.8 °F 93% 30.00 in 10.0 mi East 21.9 mph 25.3 mph N/A   Overcast
5:55 PM 35.6 °F 25.9 °F 33.8 °F 93% 29.99 in 10.0 mi ESE 16.1 mph 24.2 mph N/A   Overcast
6:15 PM 35.6 °F 27.5 °F 33.8 °F 93% 29.99 in 10.0 mi East 11.5 mph - N/A   Overcast
6:35 PM 35.6 °F 24.2 °F 33.8 °F 93% 29.99 in 10.0 mi ESE 21.9 mph 28.8 mph N/A   Overcast
6:55 PM 35.6 °F 25.2 °F 33.8 °F 93% 29.98 in 10.0 mi ESE 18.4 mph 25.3 mph N/A   Overcast
7:15 PM 35.6 °F 24.8 °F 33.8 °F 93% 29.99 in 10.0 mi ESE 19.6 mph 24.2 mph N/A   Overcast
7:35 PM 35.6 °F 24.8 °F 33.8 °F 93% 29.98 in 10.0 mi ESE 19.6 mph 25.3 mph N/A   Overcast
7:55 PM 35.6 °F 25.2 °F 33.8 °F 93% 29.99 in 10.0 mi East 18.4 mph 24.2 mph N/A   Overcast
8:15 PM 35.6 °F 26.2 °F 32.0 °F 87% 29.99 in 10.0 mi ESE 15.0 mph 21.9 mph N/A   Overcast
8:35 PM 35.6 °F 25.5 °F 33.8 °F 93% 29.98 in 10.0 mi ESE 17.3 mph 23.0 mph N/A   Overcast
9:15 PM 35.6 °F 25.9 °F 32.0 °F 87% 29.96 in 10.0 mi East 16.1 mph 21.9 mph N/A   Overcast
9:35 PM 35.6 °F 26.2 °F 32.0 °F 87% 29.95 in 10.0 mi East 15.0 mph 24.2 mph N/A   Overcast
9:55 PM 35.6 °F 26.2 °F 32.0 °F 87% 29.95 in 10.0 mi East 15.0 mph 20.7 mph N/A   Overcast
10:35 PM 35.6 °F 24.5 °F 32.0 °F 87% 29.93 in 10.0 mi East 20.7 mph 25.3 mph N/A   Overcast
10:55 PM 35.6 °F 25.5 °F 32.0 °F 87% 29.92 in 10.0 mi East 17.3 mph 25.3 mph N/A   Overcast
11:15 PM 35.6 °F 25.5 °F 32.0 °F 87% 29.91 in 10.0 mi East 17.3 mph 23.0 mph N/A   Overcast
11:35 PM 35.6 °F 25.5 °F 32.0 °F 87% 29.90 in 10.0 mi ESE 17.3 mph 23.0 mph N/A   Overcast
11:55 PM 35.6 °F 25.9 °F 32.0 °F 87% 29.89 in 10.0 mi East 16.1 mph 21.9 mph N/A   Drizzle